Hourly Data Report for October 09, 2013

All times are specified in Local Standard Time (LST). Add 1 hour to adjust for Daylight Saving Time where and when it is observed.

OTTAWA INTL A
ONTARIO

45°19'00.000" N
75°40'00.000" W
114.90 m
6106001
71628
YOW

Download Data

Hourly Data (October 2013)
Hourly Data Report for October 9, 2013
Temp Definition
°C
Dew Point Temp Definition
°C
Rel Hum Definition
%
Wind Dir Definition
10's deg

Wind Spd Definition
km/h
Visibility Definition
km
Stn Press Definition
kPa
Hmdx Definition


Wind Chill Definition


Weather Definition


TIME
00:00 Legend Double Dagger 6.0 4.5 90 16 4 24.1 101.44     LegendNANA
01:00 Legend Double Dagger 2.9 1.7 92 11 2 24.1 101.49     Clear
02:00 Legend Double Dagger 2.8 2.2 96 15 5 24.1 101.50     LegendNANA
03:00 Legend Double Dagger 5.7 5.1 96 18 7 24.1 101.49     Fog
04:00 Legend Double Dagger 4.6 4.2 97 16 8 24.1 101.57     Clear
05:00 Legend Double Dagger 2.7 2.3 97 7 5 24.1 101.62     LegendNANA
06:00 Legend Double Dagger 2.4 2.1 98 10 4 19.3 101.63     Fog
07:00 Legend Double Dagger 3.5 2.6 94 4 6 24.1 101.66     Clear
08:00 Legend Double Dagger 6.9 6.0 94 5 8 24.1 101.71     LegendNANA
09:00 Legend Double Dagger 10.3 7.2 81 23 2 24.1 101.70     LegendNANA
10:00 Legend Double Dagger 13.0 7.9 71 23 4 24.1 101.69     Clear
11:00 Legend Double Dagger 14.5 7.4 62 21 10 24.1 101.66     LegendNANA
12:00 Legend Double Dagger 15.8 6.6 54 18 8 24.1 101.60     LegendNANA
13:00 Legend Double Dagger 17.1 6.1 48 17 12 24.1 101.54     Clear
14:00 Legend Double Dagger 17.8 6.5 47 21 13 24.1 101.46     LegendNANA
15:00 Legend Double Dagger 18.1 6.4 46 15 12 24.1 101.38     LegendNANA
16:00 Legend Double Dagger 17.8 6.5 47 16 6 24.1 101.33     Clear
17:00 Legend Double Dagger 15.6 6.9 56 16 6 24.1 101.32     LegendNANA
18:00 Legend Double Dagger 13.0 6.9 66 16 8 24.1 101.30     LegendNANA
19:00 Legend Double Dagger 12.2 5.4 63 17 8 24.1 101.30     Clear
20:00 Legend Double Dagger 11.6 5.5 66 17 9 24.1 101.28     LegendNANA
21:00 Legend Double Dagger 10.9 5.9 71 18 6 24.1 101.28     LegendNANA
22:00 Legend Double Dagger 9.2 5.4 77 14 3 24.1 101.27     Clear
23:00 Legend Double Dagger 7.9 4.3 78 12 3 24.1 101.26     LegendNANA

Notes on Data Quality.

Legend

  • E = Estimated
  • M = Missing
  • NA = Not Available
  • ‡ = Partner data that is not subject to review by the National Climate Archives
Date modified: